Find Starlink 33836

NORAD ID: 63642 Int'l Des: 2025-083 Owner: SPXS Country: US Constellation: starlink operational
LEOCIRCULAR

Current View

Loading 3D Globe...

About Starlink 33836

Starlink 33836 (NORAD 63642) is a starlink constellation satellite (v2 mini) launched Apr 25, 2025 by SPXS of US. It operates in LEO, CIRCULAR orbit with a mass of 575.00 kg.

About Starlink 33836

Description loading...

Upcoming Passes

Passes for default location (London). Set your location on the main map for personalized predictions.

Altitude History

Loading altitude history...

Two-Line Element Set

1 63642U 25083J 26170.23360396 .00011356 00000-0 42145-3 0 9992
2 63642 42.9988 152.0065 0001118 271.0051 89.0673 15.27588102 65596
Epoch: Jun 19, 2026 • Age: 17 hours

Current Status

Altitude 495.6 km
Velocity 7.62 km/s
Sub-Earth Point -43.15°S, 173.94°E
Launch Date Apr 25, 2025
Age 1.1 years
Type internet

Technical Details

Classification Payload
Mass 575.00 kg
Dry Mass 530.00 kg
Total Mass 575.00 kg
Length 0.30 m
Diameter 4.10 m
Span 29.00 m
Shape Box + pan
Manufacturer SPXS
Bus Type Starlink V2MO
Phase Status In Orbit
Owner/State SPXS/US

Most Searched